KE6AFE Weather Reports


time (UTC)temp
C
wind
direction
speed
KPH
gust
KPH
rain 1hr
cm
rain 24hr
cm
rain mn
cm
humidity
%
barometer
mb
20260905083730 15 1 0.0 0.0 0.00 0.03 0.00 59 1015.0
20260905082720 15 1 0.0 0.0 0.00 0.03 0.00 59 1015.1
20260905081710 15 1 0.0 0.0 0.00 0.03 0.00 59 1015.0
20260905080700 16 1 0.0 0.0 0.00 0.03 0.00 58 1015.2
20260905075650 16 2 0.0 0.0 0.00 0.03 0.00 58 1015.2
20260905074640 16 2 0.0 0.0 0.00 0.03 0.00 58 1015.1
20260905073630 16 1 0.0 0.0 0.00 0.05 0.00 60 1015.1
20260905072620 16 1 0.0 0.0 0.00 0.05 0.00 60 1015.1
20260905071610 16 1 0.0 0.0 0.00 0.08 0.00 59 1015.0
20260905070600 16 1 0.0 0.0 0.00 0.08 0.00 53 1015.0
20260905065550 16 2 0.0 0.0 0.00 0.08 0.08 53 1014.9
20260905064540 16 1 0.0 0.0 0.00 0.08 0.08 53 1014.9
20260905063530 17 1 0.0 0.0 0.00 0.10 0.08 52 1014.8
20260905062520 17 1 0.0 0.0 0.00 0.10 0.08 52 1014.8
20260905061510 17 1 0.0 0.0 0.00 0.10 0.08 52 1014.8
20260905060500 17 1 0.0 0.0 0.00 0.10 0.08 52 1015.0
20260905055450 17 1 0.0 0.0 0.00 0.10 0.08 51 1015.0
20260905054440 17 1 0.0 0.0 0.00 0.10 0.08 51 1015.0
20260905053430 17 1 0.0 0.0 0.00 0.10 0.08 51 1014.9
20260905052420 17 1 0.0 0.0 0.00 0.10 0.08 51 1014.9
20260905051410 18 1 0.0 0.0 0.00 0.10 0.08 51 1015.0
20260905050400 18 1 0.0 0.0 0.00 0.10 0.08 49 1015.1
20260905045350 18 1 0.0 0.0 0.00 0.10 0.08 49 1015.0
20260905044340 18 1 0.0 0.0 0.00 0.10 0.08 48 1014.9
20260905043330 18 1 0.0 0.0 0.00 0.10 0.08 47 1014.8
20260905042320 19 1 0.0 0.0 0.00 0.10 0.08 46 1014.7
20260905041310 19 1 0.0 0.0 0.00 0.10 0.08 45 1014.7
20260905040300 20 2 0.0 0.0 0.00 0.10 0.08 44 1014.7
20260905035250 20 1 0.0 0.0 0.00 0.10 0.08 43 1014.6
20260905034240 20 1 0.0 0.0 0.00 0.10 0.08 42 1014.5
20260905033230 21 1 0.0 0.0 0.00 0.10 0.08 41 1014.3
20260905032220 21 1 0.0 0.0 0.00 0.10 0.08 41 1014.2
20260905031210 21 1 0.0 0.0 0.00 0.10 0.08 40 1014.2
20260905030200 22 1 0.0 0.0 0.00 0.10 0.08 40 1014.1
20260905025150 22 1 0.0 0.0 0.00 0.10 0.08 41 1014.1
20260905024140 23 1 0.0 0.0 0.00 0.10 0.08 41 1014.1
20260905023130 23 1 0.0 0.0 0.00 0.10 0.08 42 1014.1
20260905022120 23 1 0.0 0.0 0.00 0.10 0.08 42 1014.1
20260905021110 24 1 0.0 0.0 0.00 0.10 0.08 42 1014.0
20260905020100 24 1 0.0 0.0 0.00 0.10 0.08 41 1013.9
20260905015050 25 1 0.0 0.0 0.00 0.10 0.08 43 1013.9
20260905014040 25 1 0.0 0.0 0.00 0.10 0.08 43 1013.9
20260905013030 25 1 0.0 0.0 0.00 0.10 0.08 43 1013.9
20260905012020 25 1 0.0 0.0 0.00 0.10 0.08 42 1014.0
20260905011010 25 1 0.0 0.0 0.00 0.10 0.08 42 1014.0
20260905010000 25 1 0.0 0.0 0.00 0.10 0.08 41 1014.0
20260905004950 26 1 0.0 0.0 0.00 0.10 0.08 41 1014.0
20260905003940 26 1 0.0 0.0 0.00 0.10 0.08 40 1014.0
20260905002930 26 1 0.0 0.0 0.00 0.10 0.08 40 1014.0
20260905001920 26 1 0.0 0.0 0.00 0.10 0.08 40 1014.1
20260905000910 26 1 0.0 0.0 0.00 0.10 0.08 39 1014.0
20260904235900 26 1 0.0 0.0 0.00 0.10 0.08 38 1014.0
20260904234850 26 1 0.0 0.0 0.00 0.10 0.08 38 1014.1
20260904233840 26 1 0.0 0.0 0.00 0.10 0.08 38 1014.2
20260904232830 26 1 0.0 0.0 0.00 0.10 0.08 37 1014.2
20260904231820 26 1 0.0 0.0 0.00 0.10 0.08 38 1014.3
20260904230810 26 1 0.0 0.0 0.00 0.10 0.08 37 1014.2
20260904225800 26 1 0.0 0.0 0.00 0.10 0.08 38 1014.4
20260904224750 26 1 0.0 0.0 0.00 0.10 0.08 39 1014.4
20260904223740 26 1 0.0 0.0 0.00 0.10 0.08 39 1014.5
20260904222730 26 1 0.0 0.0 0.00 0.10 0.08 40 1014.6
20260904221720 26 0 0.0 0.0 0.00 0.10 0.08 41 1014.7
20260904220710 26 1 0.0 0.0 0.00 0.10 0.08 41 1014.8
20260904215700 26 1 0.0 0.0 0.00 0.10 0.08 42 1014.8
20260904214650 26 1 0.0 0.0 0.00 0.10 0.08 42 1014.8
20260904213640 25 0 0.0 0.0 0.00 0.10 0.08 42 1014.8
20260904212630 25 1 0.0 0.0 0.00 0.10 0.08 43 1014.8
20260904211620 25 1 0.0 0.0 0.00 0.10 0.08 44 1014.9
20260904210610 24 1 0.0 0.0 0.00 0.10 0.08 45 1015.0
20260904205600 24 0 0.0 0.0 0.00 0.10 0.08 48 1015.1
20260904204550 24 0 0.0 0.0 0.00 0.10 0.08 50 1015.2
20260904203540 23 0 0.0 0.0 0.00 0.10 0.08 51 1015.3
20260904202530 23 0 0.0 0.0 0.00 0.10 0.08 54 1015.2
20260904201520 23 0 0.0 0.0 0.00 0.10 0.08 56 1015.3
20260904200510 23 0 0.0 0.0 0.00 0.10 0.08 57 1015.2
20260904195500 23 0 0.0 0.0 0.00 0.10 0.08 59 1015.2
20260904194450 23 0 0.0 0.0 0.00 0.10 0.08 60 1015.2
20260904193440 22 1 0.0 0.0 0.00 0.10 0.08 61 1015.2
20260904192430 22 0 0.0 0.0 0.00 0.10 0.08 62 1015.2
20260904191420 22 0 0.0 0.0 0.00 0.10 0.08 63 1015.3
20260904190410 22 0 0.0 0.0 0.00 0.10 0.08 65 1015.3
20260904185400 21 0 0.0 0.0 0.00 0.10 0.08 67 1015.3
20260904184350 21 0 0.0 0.0 0.00 0.10 0.08 68 1015.3
20260904183340 21 0 0.0 0.0 0.00 0.10 0.08 69 1015.4
20260904182330 20 0 0.0 0.0 0.00 0.10 0.08 71 1015.2
20260904181320 20 0 0.0 0.0 0.00 0.10 0.08 71 1015.2
20260904180310 20 0 0.0 0.0 0.00 0.10 0.08 72 1015.3
20260904175300 20 0 0.0 0.0 0.00 0.10 0.08 72 1015.2
20260904174250 19 0 0.0 0.0 0.00 0.10 0.08 74 1015.2
20260904173240 19 0 0.0 0.0 0.00 0.10 0.08 76 1015.3
20260904172230 18 0 0.0 0.0 0.00 0.10 0.08 77 1015.1
20260904171220 18 0 0.0 0.0 0.00 0.10 0.08 77 1015.0
20260904170210 18 0 0.0 0.0 0.00 0.10 0.08 78 1015.1
20260904165200 18 0 0.0 0.0 0.00 0.10 0.08 78 1015.1
20260904164150 18 0 0.0 0.0 0.00 0.10 0.08 79 1014.9
20260904163140 17 0 0.0 0.0 0.03 0.10 0.08 80 1014.8
20260904162130 17 1 0.0 0.0 0.03 0.10 0.08 80 1014.7
20260904161120 17 1 0.0 0.0 0.03 0.10 0.08 81 1014.6
20260904160110 16 1 0.0 0.0 0.03 0.10 0.08 81 1014.4
20260904155100 16 1 0.0 0.0 0.03 0.10 0.08 81 1014.3
20260904154050 15 1 0.0 0.0 0.00 0.08 0.05 81 1014.3
20260904153040 15 1 0.0 0.0 0.00 0.08 0.05 82 1014.2
20260904152030 15 1 0.0 0.0 0.00 0.08 0.05 82 1014.2
20260904151020 15 1 0.0 0.0 0.00 0.08 0.05 82 1014.2
20260904150010 14 2 0.0 0.0 0.00 0.08 0.05 81 1014.1
20260904145000 14 1 0.0 0.0 0.00 0.08 0.05 81 1013.9
20260904143950 14 2 0.0 0.0 0.00 0.08 0.05 81 1013.8
20260904142940 14 2 0.0 0.0 0.00 0.08 0.05 80 1013.7
20260904141930 14 2 0.0 0.0 0.00 0.08 0.05 80 1013.6
20260904140920 14 1 0.0 0.0 0.00 0.08 0.05 79 1013.5
20260904135910 14 2 0.0 0.0 0.00 0.08 0.05 79 1013.3
20260904134900 14 1 0.0 0.0 0.00 0.08 0.05 79 1013.3
20260904133850 15 2 0.0 0.0 0.00 0.08 0.05 79 1013.2
20260904132840 15 1 0.0 0.0 0.00 0.08 0.05 78 1013.1
20260904131830 15 2 0.0 0.0 0.00 0.08 0.05 79 1013.2
20260904130820 15 2 0.0 0.0 0.00 0.08 0.05 79 1013.1
20260904125810 15 1 0.0 0.0 0.00 0.08 0.05 79 1013.0
20260904124800 15 1 0.0 0.0 0.00 0.08 0.05 79 1013.0
20260904123750 15 1 0.0 0.0 0.00 0.08 0.05 79 1012.9
20260904122740 15 2 0.0 0.0 0.00 0.08 0.05 79 1013.0
20260904121730 15 2 0.0 0.0 0.00 0.08 0.05 78 1012.9
20260904120720 15 2 0.0 0.0 0.00 0.08 0.05 79 1012.8
20260904115710 16 1 0.0 0.0 0.00 0.08 0.05 78 1012.8
20260904114700 16 2 0.0 0.0 0.00 0.08 0.05 78 1012.8
20260904113650 16 1 0.0 0.0 0.00 0.08 0.05 78 1012.8
20260904112640 16 1 0.0 0.0 0.00 0.08 0.05 78 1012.6
20260904111630 16 1 0.0 0.0 0.00 0.08 0.05 77 1012.6
20260904110620 16 2 0.0 0.0 0.00 0.08 0.05 77 1012.6
20260904105610 16 2 0.0 0.0 0.00 0.08 0.05 77 1012.6
20260904104600 17 1 0.0 0.0 0.00 0.08 0.05 77 1012.6
20260904103550 17 1 0.0 0.0 0.00 0.08 0.05 78 1012.6
20260904102540 17 1 0.0 0.0 0.00 0.08 0.05 78 1012.4
20260904101530 17 1 0.0 0.0 0.00 0.08 0.05 77 1012.5
20260904100520 17 0 0.0 0.0 0.00 0.08 0.05 77 1012.5
20260904095510 17 1 0.0 0.0 0.00 0.08 0.05 78 1012.5
20260904094500 18 1 0.0 0.0 0.00 0.08 0.05 77 1012.5
20260904093450 18 1 0.0 0.0 0.00 0.08 0.05 78 1012.4
20260904092440 18 1 0.0 0.0 0.00 0.08 0.05 78 1012.4
20260904091430 18 1 0.0 0.0 0.00 0.08 0.05 78 1012.4
20260904090420 18 1 0.0 0.0 0.00 0.08 0.05 79 1012.4
20260904085410 18 1 0.0 0.0 0.00 0.08 0.05 79 1012.5
20260904084400 18 1 0.0 0.0 0.00 0.08 0.05 78 1012.4